User: anonymous   Login
Location: Caltech
(34.1382°N, 118.1253°W)
Time: 09:41:46
(UTC-08:00)
Language:

Cosmos 1980 Rocket - Orbit

View from above orbital plane
View from above orbital plane
View from above satellite
View from above satellite

Ground track
Ground track

The orbit data is extracted from the following two-line orbital elements,

1 19650U 88102B   18017.16241360 -.00000270 +00000-0 -11298-3 0  9995
2 19650 071.0001 285.1629 0015949 224.1851 135.7999 14.15765133506006
Epoch (UTC): 17 January 2018 03:53:52
Eccentricity: 0.0015949
inclination: 71.0001°
perigee height: 828 km
apogee height: 851 km
right ascension of ascending node: 285.1629°
argument of perigee: 224.1851°
revolutions per day: 14.15765133
mean anomaly at epoch: 135.7999°
orbit number at epoch: 50600

The dashed part of the orbit path shows where the satellite is in the earth's shadow,  

DLR